This is the latest recevied weather packets stored in our database for station/object SP1BMW-13. If no packets are shown the sender has not sent any weather packets the latest 10 day(s).
| Time | Temp. | Humidity | Pressure | Rain* | Wind** | Luminosity | Snow |
|---|---|---|---|---|---|---|---|
| 1777562416 | 18.89° C | 35% | 1028 hPa | 0 mm | 0.89 m/s, 285° | 310 W/m² | - |
| 1777562356 | 18.89° C | 34% | 1028.2 hPa | 0 mm | 1.34 m/s, 294° | 314 W/m² | - |
| 1777562296 | 18.89° C | 35% | 1028 hPa | 0 mm | 1.34 m/s, 261° | 305 W/m² | - |
| 1777562236 | 18.89° C | 35% | 1028.1 hPa | 0 mm | 0.89 m/s, 284° | 317 W/m² | - |
| 1777562176 | 18.89° C | 35% | 1027.9 hPa | 0 mm | 1.34 m/s, 278° | 322 W/m² | - |
| 1777562116 | 18.89° C | 36% | 1028 hPa | 0 mm | 1.34 m/s, 296° | 322 W/m² | - |
| 1777562056 | 18.89° C | 35% | 1028 hPa | 0 mm | 0.89 m/s, 66° | 323 W/m² | - |
| 1777561996 | 18.89° C | 35% | 1028 hPa | 0 mm | 0.89 m/s, 76° | 321 W/m² | - |
| 1777561936 | 18.89° C | 36% | 1028.1 hPa | 0 mm | 2.24 m/s, 333° | 324 W/m² | - |
| 1777561876 | 18.89° C | 35% | 1028 hPa | 0 mm | 1.34 m/s, 29° | 328 W/m² | - |
| 1777561816 | 18.89° C | 36% | 1028.1 hPa | 0 mm | 0.45 m/s, 307° | 332 W/m² | - |
| 1777561756 | 18.89° C | 36% | 1028.1 hPa | 0 mm | 0.89 m/s, 268° | 331 W/m² | - |
| 1777561696 | 18.89° C | 35% | 1028.1 hPa | 0 mm | 3.13 m/s, 334° | 326 W/m² | - |
| 1777561637 | 18.89° C | 36% | 1028.1 hPa | 0 mm | 0.45 m/s, 48° | 330 W/m² | - |
| 1777561576 | 18.89° C | 35% | 1028.1 hPa | 0 mm | 2.68 m/s, 337° | 332 W/m² | - |
| 1777561516 | 18.89° C | 35% | 1028.1 hPa | 0 mm | 2.24 m/s, 295° | 334 W/m² | - |
| 1777561455 | 18.89° C | 36% | 1028 hPa | 0 mm | 0.89 m/s, 291° | 339 W/m² | - |
| 1777561395 | 18.89° C | 35% | 1028.2 hPa | 0 mm | 1.79 m/s, 339° | 329 W/m² | - |
| 1777561335 | 18.89° C | 35% | 1028 hPa | 0 mm | 1.34 m/s, 286° | 334 W/m² | - |
| 1777561276 | 18.89° C | 34% | 1028.1 hPa | 0 mm | 1.79 m/s, 4° | 342 W/m² | - |
| 1777561216 | 18.89° C | 35% | 1028.1 hPa | 0 mm | 0.89 m/s, 239° | 347 W/m² | - |
| 1777561157 | 18.89° C | 35% | 1028 hPa | 0 mm | 1.79 m/s, 312° | 350 W/m² | - |
| 1777561095 | 18.89° C | 35% | 1028 hPa | 0 mm | 1.79 m/s, 290° | 363 W/m² | - |
| 1777561035 | 18.89° C | 35% | 1028.2 hPa | 0 mm | 2.24 m/s, 302° | 371 W/m² | - |
| 1777560975 | 18.89° C | 35% | 1028.1 hPa | 0 mm | 1.79 m/s, 276° | 378 W/m² | - |
* Rain latest hour (hover to see other rain measurements)
** Current wind speed in m/s (hover to see current wind gust speed)